TimeEET,TemperatureF,Dew PointF,Humidity,Sea Level PressureIn,VisibilityMPH,Wind Direction,Wind SpeedMPH,Gust SpeedMPH,PrecipitationIn,Events,Conditions,WindDirDegrees,DateUTC
12:20 AM,28.4,26.6,93,30.18,-9999.0,NE,1.2,-,N/A,,Mist,50,2012-11-27 22:20:00
12:50 AM,28.4,26.6,93,30.18,-9999.0,Variable,1.2,-,N/A,,Mist,0,2012-11-27 22:50:00
1:20 AM,28.4,26.6,93,30.18,-9999.0,Variable,2.3,-,N/A,,Mist,0,2012-11-27 23:20:00
1:50 AM,26.6,24.8,93,30.18,-9999.0,Variable,2.3,-,N/A,,Mist,0,2012-11-27 23:50:00
2:00 AM,27,26,97,30.27,3,NNE,2.3,,,,Mist,20,2012-11-28 00:00:00
2:20 AM,26.6,26.6,100,30.18,-9999.0,Variable,1.2,-,N/A,,Mist,0,2012-11-28 00:20:00
2:50 AM,26.6,24.8,93,30.18,-9999.0,Variable,1.2,-,N/A,,Mist,0,2012-11-28 00:50:00
3:20 AM,24.8,23.0,93,30.18,-9999.0,Variable,3.5,-,N/A,,Mist,0,2012-11-28 01:20:00
3:50 AM,24.8,24.8,100,30.18,-9999.0,Variable,1.2,-,N/A,,Mist,0,2012-11-28 01:50:00
4:20 AM,24.8,24.8,100,30.18,-9999.0,NNW,1.2,-,N/A,,Mist,340,2012-11-28 02:20:00
4:50 AM,24.8,23.0,93,30.18,-9999.0,NNE,1.2,-,N/A,,Mist,30,2012-11-28 02:50:00
5:20 AM,24.8,23.0,93,30.18,-9999.0,NNE,1.2,-,N/A,,Mist,30,2012-11-28 03:20:00
5:50 AM,23.0,21.2,93,30.18,-9999.0,North,2.3,-,N/A,,Mist,10,2012-11-28 03:50:00
6:20 AM,24.8,23.0,93,30.18,-9999.0,Variable,2.3,-,N/A,,Mist,0,2012-11-28 04:20:00
6:50 AM,23.0,23.0,100,30.18,2.8,Variable,2.3,-,N/A,,Unknown,0,2012-11-28 04:50:00
7:20 AM,21.2,21.2,100,30.18,-9999.0,NW,1.2,-,N/A,,Mist,310,2012-11-28 05:20:00
7:50 AM,24.8,23.0,93,30.21,-9999.0,NE,2.3,-,N/A,,Mist,40,2012-11-28 05:50:00
8:00 AM,24,23,94,30.35,3,NE,2.3,,,,Mist,40,2012-11-28 06:00:00
8:20 AM,28.4,26.6,93,30.21,2.5,Variable,1.2,-,N/A,,Mist,0,2012-11-28 06:20:00
8:50 AM,28.4,26.6,93,30.21,-9999.0,Variable,2.3,-,N/A,,Mist,0,2012-11-28 06:50:00
9:20 AM,32.0,30.2,93,30.21,-9999.0,Variable,1.2,-,N/A,,Mist,0,2012-11-28 07:20:00
9:50 AM,35.6,30.2,81,30.21,3.7,NW,3.5,-,N/A,,Unknown,320,2012-11-28 07:50:00
10:20 AM,37.4,30.2,75,30.18,4.3,Variable,1.2,-,N/A,,Unknown,0,2012-11-28 08:20:00
10:50 AM,39.2,32.0,75,30.18,4.3,Variable,2.3,-,N/A,,Unknown,0,2012-11-28 08:50:00
11:20 AM,42.8,32.0,66,30.18,6.2,Variable,2.3,-,N/A,,Scattered Clouds,0,2012-11-28 09:20:00
11:50 AM,46.4,33.8,62,30.15,6.2,Variable,2.3,-,N/A,,Scattered Clouds,0,2012-11-28 09:50:00
12:20 PM,48.2,35.6,62,30.15,6.2,WSW,3.5,-,N/A,,Scattered Clouds,240,2012-11-28 10:20:00
12:50 PM,50.0,33.8,54,30.15,6.2,South,5.8,-,N/A,,Scattered Clouds,190,2012-11-28 10:50:00
1:20 PM,50.0,32.0,50,30.12,5.0,South,5.8,-,N/A,,Scattered Clouds,170,2012-11-28 11:20:00
1:50 PM,51.8,32.0,47,30.12,5.0,South,6.9,-,N/A,,Mostly Cloudy,190,2012-11-28 11:50:00
2:00 PM,52,33,36,30.20,5,South,6.9,,,,Haze,190,2012-11-28 12:00:00
2:20 PM,51.8,32.0,47,30.12,5.0,SSW,10.4,-,N/A,,Scattered Clouds,200,2012-11-28 12:20:00
2:50 PM,50.0,33.8,54,30.12,5.0,SSW,8.1,-,N/A,,Scattered Clouds,200,2012-11-28 12:50:00
3:20 PM,50.0,33.8,54,30.15,5.0,South,6.9,-,N/A,,Scattered Clouds,190,2012-11-28 13:20:00
3:50 PM,48.2,33.8,58,30.15,5.0,South,3.5,-,N/A,,Scattered Clouds,180,2012-11-28 13:50:00
4:20 PM,48.2,33.8,58,30.12,4.3,South,3.5,-,N/A,,Scattered Clouds,190,2012-11-28 14:20:00
4:50 PM,46.4,33.8,62,30.15,4.3,South,2.3,-,N/A,,Scattered Clouds,180,2012-11-28 14:50:00
5:20 PM,42.8,33.8,70,30.15,3.7,Variable,1.2,-,N/A,,Scattered Clouds,0,2012-11-28 15:20:00
5:50 PM,42.8,32.0,66,30.15,3.7,Variable,1.2,-,N/A,,Scattered Clouds,0,2012-11-28 15:50:00
6:20 PM,42.8,32.0,66,30.15,3.7,East,3.5,-,N/A,,Scattered Clouds,90,2012-11-28 16:20:00
6:50 PM,37.4,32.0,81,30.15,3.7,Variable,2.3,-,N/A,,Scattered Clouds,0,2012-11-28 16:50:00
7:20 PM,39.2,32.0,75,30.15,3.7,NNE,3.5,-,N/A,,Scattered Clouds,30,2012-11-28 17:20:00
7:50 PM,37.4,32.0,81,30.15,3.7,NNE,3.5,-,N/A,,Scattered Clouds,20,2012-11-28 17:50:00
8:00 PM,38,30,65,30.29,4,NNE,3.5,,,,Mist,20,2012-11-28 18:00:00
8:20 PM,37.4,30.2,75,30.15,3.7,ENE,3.5,-,N/A,,Unknown,60,2012-11-28 18:20:00
8:50 PM,33.8,30.2,87,30.15,3.7,Variable,2.3,-,N/A,,Unknown,0,2012-11-28 18:50:00
9:20 PM,33.8,30.2,87,30.15,3.7,Variable,1.2,-,N/A,,Unknown,0,2012-11-28 19:20:00
9:50 PM,33.8,30.2,87,30.15,3.7,NW,3.5,-,N/A,,Unknown,320,2012-11-28 19:50:00
10:20 PM,33.8,30.2,87,30.15,3.7,Variable,1.2,-,N/A,,Unknown,0,2012-11-28 20:20:00
10:50 PM,33.8,30.2,87,30.15,2.8,Variable,1.2,-,N/A,,Mist,0,2012-11-28 20:50:00
11:20 PM,32.0,28.4,87,30.15,2.8,NW,3.5,-,N/A,,Mist,320,2012-11-28 21:20:00
11:50 PM,30.2,28.4,93,30.15,2.8,NW,3.5,-,N/A,,Mist,320,2012-11-28 21:50:00